Location: Rounton
(54.4000°N, 1.3500°W)
Time: 01:11:36
(UTC+01:00)

FENGYUN 1C DEB - Pass Details

Date: 05 July 2022
Orbit: 737 x 860 km, 99.3° (Epoch: 14 August)

Event Time Altitude Azimuth Distance (km) Brightness Sun altitude
Exits shadow 22:33:06 - 171° (S) 2,809 ? -5.8°
Reaches altitude 10° 22:34:28 10° 173° (S) 2,259 ? -6.0°
Maximum altitude 22:39:23 66° 256° (WSW) 811 ? -6.4°
Drops below altitude 10° 22:44:18 10° 338° (NNW) 2,258 ? -6.8°
Sets 22:46:37 0° 342° (NNW) 3,188 ? -7.0°
